Regional Weather Roundup
Issued by NWS Mobile, AL

Home | Current Version | Previous Version | Text Only | Print | Product List | Glossary On
Versions: 1 2 3 4 5 6 7 8 9 10 11 12 13 14 15 16 17 18 19 20 21 22 23 24 25 26 27 28 29 30 31 32 33 34 35 36 37 38 39 40 41 42 43 44 45 46 47 48 49 50
000
ASUS44 KMOB 041111
RWRMOB
REGIONAL WEATHER ROUNDUP
NATIONAL WEATHER SERVICE MOBILE AL
500 AM CST WED MAR 04 2015

NOTE: "FAIR" INDICATES FEW OR NO CLOUDS BELOW 12,000 FEET WITH NO
      SIGNIFICANT WEATHER AND/OR OBSTRUCTIONS TO VISIBILITY.

  * THESE STATIONS ARE PART OF THE UNIVERSITY OF SOUTH ALABAMA
    MESONET AND ARE NOT UNDER NWS OR FAA QUALITY CONTROL.

ALZ061>064-041200-
COASTAL ALABAMA

CITY           SKY/WX    TMP DP  RH WIND       PRES   REMARKS
MOBILE REG APT CLOUDY    66  65  96 SE9       30.02S FOG
BROOKLEY FIELD FOG       64  63  96 S8        30.03S VSB 1/4
USA CAMPUS*      N/A     66  66 100 CALM      30.02S
DOG RIVER*     NOT AVBL


CITY           SKY/WX    TMP DP  RH WIND       PRES   REMARKS
MOUNT VERNON*  NOT AVBL
SARALAND*      NOT AVBL
BAY MINETTE*   NOT AVBL
LOXLEY*          N/A     66  64  94 SE6       30.03R
ROBERTSDALE*   NOT AVBL
FAIRHOPE*      NOT AVBL
ELBERTA*         N/A     66  66 100 SE3       30.01S
FOLEY*         NOT AVBL
GRAND BAY*       N/A     66  66 100 S7        30.00R
DAUPHIN ISLND* NOT AVBL
BON SCOUR NWR* NOT AVBL
GULF SHORES    CLOUDY    66  66 100 E7        30.02S FOG

$$

ALZ051>060-041200-
INTERIOR SOUTHWEST AND SOUTH CENTRAL ALABAMA

CITY           SKY/WX    TMP DP  RH WIND       PRES   REMARKS
GREENVILLE     CLOUDY    64  62  93 S6        30.04S
EVERGREEN      CLOUDY    64  63  96 S7        30.05R FOG
CASTLEBERRY*   NOT AVBL
ATMORE*          N/A     63  63 100 SE5       30.06R
DIXIE*         NOT AVBL
ANDALUSIA/OPP  CLOUDY    66  62  87 CALM      30.06  FOG
ANDALUSIA*       N/A     63  63 100 SW6       30.06R
FLORALA APT    CLOUDY    65  63  93 S6        30.07R
FLORALA*         N/A     64  64 100 CALM      30.03R

$$

FLZ001>006-041200-
WESTERN FLORIDA PANHANDLE

CITY           SKY/WX    TMP DP  RH WIND       PRES   REMARKS
PENSACOLA      FOG       64  64 100 SE8       30.03S VSB 1/2
NAS PENSACOLA  FOG       66  65  96 SE9       30.02  VSB 1/4
MILTON         CLOUDY    65  65 100 S8        30.04  FOG
WHTNG S FIELD  CLOUDY    67  65  93 S8        30.04R FOG


CITY           SKY/WX    TMP DP  RH WIND       PRES   REMARKS
WALNUT HILL*   NOT AVBL
JAY*             N/A     64  63  94 S3        30.05S
DUKE FIELD     FOG       65  64  98 S8        30.04R VSB 1/2
CRESTVIEW      CLOUDY    65  65 100 S5        30.06S FOG
VALPARAISO     FOG       63  62  96 SE5       30.04  VSB 1/4
DESTIN         FOG       63  63 100 SE6       30.05S VSB 1/2

$$

MSZ076-079-041200-
INTERIOR SOUTHEAST MISSISSIPPI

CITY           SKY/WX    TMP DP  RH WIND       PRES   REMARKS
LEAKESVILLE*   NOT AVBL
AGRICOLA*      NOT AVBL

$$

MARINE OBSERVATIONS

STATION/POSITION TIME  TEMP    WIND        PRES    WAVE
                       AIR SEA DIR/SP/G            HT/PER
                 (UTC) (F)     (DEG/KT/KT) (MB)    (FT/S)
E DAUPHIN ISLAND NOT AVBL
12 S ORANGE BCH  NOT AVBL

$$

SELECTED LOCATIONS ACROSS THE REGION

CITY           SKY/WX    TMP DP  RH WIND       PRES   REMARKS
NEW ORLEANS    PTCLDY    67  64  90 SE5       29.97R
GULFPORT       FOG       64  63  96 SE8       29.99S VSB 1/2
PASCAGOULA AP  CLOUDY    66  65  96 SE7       30.00S
PASCAGOULA*    NOT AVBL
HATTIESBURG    MOCLDY    68  66  93 S6        30.00R
LAUREL         CLOUDY    66  63  88 S5        30.00S
MERIDIAN       LGT RAIN  65  64  97 S8        29.98S
JACKSON        CLOUDY    67  65  93 S7        29.95F
MONTGOMERY     CLOUDY    65  62  90 MISG      30.04S
TROY           CLOUDY    63  60  90 VRB5      30.07R
KINSTON*       NOT AVBL
GENEVA*        NOT AVBL
ASHFORD*         N/A     63  63 100 SW6       30.06R
DOTHAN         CLOUDY    62  61  96 SW6       30.10R
PANAMA CITY    FOG       64  64 100 SE3       30.06S VSB 1/2

$$



USA.gov is the U.S. government's official web portal to all federal, state and local government web resources and services.